Location: Banios
(43.0451°N, 0.2335°E)
Time: 08:57:27
(UTC+00:00)

A-11 Canister half - Pass Details

Date: 21 May 2021
Orbit: 1527 x 1681 km, 47.3° (Epoch: 22 June)

Event Time Altitude Azimuth Distance (km) Brightness Sun altitude
Rises 06:11:33 0° 220° (SW) 4,672 11.1 16.5°
Reaches altitude 10° 06:14:38 10° 216° (SW) 3,700 10.6 17.0°
Maximum altitude 06:23:38 55° 142° (SE) 1,818 10.0 18.6°
Drops below altitude 10° 06:32:55 10° 68° (ENE) 3,808 13.0 20.3°
Sets 06:36:07 0° 64° (ENE) 4,817 12.9 20.9°
